Terminal Aerodrome Forecast
Issued by NWS

Home | Current Version | Previous Version | Text Only | Print | Product List | Glossary On
Versions: 1 2 3 4 5 6 7 8 9 10 11 12 13 14 15 16 17 18 19 20 21 22 23 24 25 26 27 28 29 30 31
000
FTUS45 KBOI 021450 AAA
TAFBKE
TAF AMD
KBKE 021450Z 0215/0312 00000KT 3SM BR SKC
     FM021530 VRB04KT P6SM SKC
     FM022000 09007KT P6SM SCT200
     FM022300 32014KT P6SM FEW100 BKN200
     FM030900 32007KT P6SM SCT100 BKN200=

USA.gov is the U.S. government's official web portal to all federal, state and local government web resources and services.